Jefferson, NC

1:45 PM EST on December 15, 2019 (GMT -0500)
Ashe County

Weather History for KGEV - October, 2019

Change the Weather History Date:

Sunday, October 20, 2019

  Actual Average Record
Temperature  
Mean Temperature 52 °F -  
Max Temperature 62 °F 61 °F 77 °F (1985)
Min Temperature 43 °F 37 °F 19 °F (1972)
Degree Days  
Heating Degree Days 12    
Growing Degree Days 2 (Base 50)    
Moisture  
Dew Point 50 °F    
Average Humidity 93    
Maximum Humidity 100    
Minimum Humidity 74    
Precipitation  
Precipitation 0.93 in - - ()
Sea Level Pressure  
Sea Level Pressure 29.92 in    
Wind  
Wind Speed 4 mph ()    
Max Wind Speed 13 mph    
Max Gust Speed 23 mph    
Visibility 7.0 miles    
Events Rain    
Averages and records for this station are not official NWS values.
T = Trace of Precipitation, MM = Missing Value Source: Averaged Metar Reports

Daily Weather History Graph

Daily Weather History Graph

Search for Another Location

Airport or City:

Astronomy

Oct. 20, 2019 Rise Set
Actual Time 7:37 AM EDT 6:43 PM EDT
Civil Twilight 7:11 AM EDT 7:09 PM EDT
Nautical Twilight 6:41 AM EDT 7:39 PM EDT
Astronomical Twilight 6:11 AM EDT 8:09 PM EDT
Moon 11:57 PM EDT (10/20) 1:57 PM EDT (10/20)
Length of Visible Light 11h 58m
Length of Day
11h 06m
Waning Gibbous, 59% of the Moon is Illuminated
Oct 20
Waning Gibbous
Oct 21
Last Quarter
Oct 27
New
Nov 4
First Quarter
Nov 12
Full

Hourly Weather History & Observations

Time (EDT) Temp. Windchill Dew Point Humidity Pressure Visibility Wind Dir Wind Speed Gust Speed Precip Events Conditions
12:15 AM 43.7 °F 42.1 °F 43.7 °F 100% 29.94 in 2.5 mi NNW 3.5 mph - 0.07 in Rain Rain
12:35 AM 43.7 °F 41.1 °F 43.7 °F 100% 29.92 in 5.0 mi North 4.6 mph - 0.13 in Rain Rain
12:55 AM 43.7 °F 40.3 °F 43.7 °F 100% 29.90 in 5.0 mi North 5.8 mph - 0.18 in Rain Heavy Rain
1:15 AM 43.7 °F 42.1 °F 43.7 °F 100% 29.89 in 1.5 mi NNW 3.5 mph - 0.11 in   Overcast
1:35 AM 44.4 °F 42.0 °F 44.4 °F 100% 29.90 in 1.5 mi NW 4.6 mph - 0.23 in   Overcast
1:55 AM 44.1 °F 42.5 °F 44.1 °F 100% 29.89 in 5.0 mi North 3.5 mph - 0.30 in Rain Heavy Rain
2:15 AM 44.6 °F 43.1 °F 44.6 °F 100% 29.88 in 1.5 mi North 3.5 mph - 0.10 in   Overcast
2:35 AM 44.6 °F 43.1 °F 44.6 °F 100% 29.87 in 1.5 mi North 3.5 mph - 0.22 in   Overcast
2:55 AM 45.0 °F - 45.0 °F 100% 29.87 in 3.0 mi Calm Calm - 0.31 in Rain Rain
3:15 AM 45.1 °F - 45.1 °F 100% 29.86 in 4.0 mi Calm Calm - 0.02 in Rain Heavy Rain
3:35 AM 45.5 °F - 45.5 °F 100% 29.85 in 3.0 mi Calm Calm - 0.04 in   Heavy Drizzle
3:55 AM 45.5 °F 44.2 °F 45.5 °F 100% 29.85 in 5.0 mi North 3.5 mph - 0.08 in Rain Heavy Rain
4:15 AM 46.0 °F - 46.0 °F 100% 29.84 in 3.0 mi Calm Calm - 0.01 in   Heavy Drizzle
4:35 AM 46.4 °F - 46.4 °F 100% 29.84 in 3.0 mi Calm Calm - 0.02 in   Heavy Drizzle
4:55 AM 46.4 °F - 46.4 °F 100% 29.84 in 3.0 mi Calm Calm - 0.03 in   Drizzle
5:15 AM 46.0 °F - 46.0 °F 100% 29.83 in 1.5 mi Calm Calm - N/A   Light Drizzle
5:35 AM 46.0 °F 43.9 °F 46.0 °F 100% 29.83 in 5.0 mi NNE 4.6 mph - N/A   Overcast
5:55 AM 46.0 °F - 46.0 °F 100% 29.84 in 4.0 mi Calm Calm - N/A Rain Rain
6:15 AM 46.4 °F 45.2 °F 46.4 °F 100% 29.84 in 1.0 mi NNW 3.5 mph - 0.01 in   Drizzle
6:35 AM 46.6 °F - 46.6 °F 100% 29.84 in 4.0 mi North 5.8 mph - 0.01 in   Heavy Drizzle
6:55 AM 46.8 °F - 46.8 °F 100% 29.84 in 4.0 mi NNW 5.8 mph - 0.02 in   Drizzle
7:15 AM 47.3 °F - 47.3 °F 100% 29.84 in 7.0 mi NW 4.6 mph - N/A Rain Rain
7:35 AM 47.5 °F - 47.5 °F 100% 29.84 in 10.0 mi NNW 3.5 mph - N/A   Overcast
7:55 AM 48.2 °F - 48.2 °F 100% 29.85 in 10.0 mi NNW 4.6 mph - N/A   Overcast
8:15 AM 49.1 °F - 49.1 °F 100% 29.85 in 10.0 mi NNW 6.9 mph - N/A   Overcast
8:35 AM 49.3 °F - 49.3 °F 100% 29.85 in 2.5 mi NNW 5.8 mph - N/A   Overcast
8:55 AM 49.6 °F - 49.6 °F 100% 29.86 in 2.5 mi NW 10.4 mph - N/A   Overcast
9:15 AM 50.4 °F - 50.4 °F 100% 29.86 in 1.8 mi NW 8.1 mph - N/A   Overcast
9:35 AM 51.1 °F - 51.1 °F 100% 29.86 in 2.0 mi NW 8.1 mph - N/A   Overcast
9:55 AM 51.8 °F - 51.8 °F 100% 29.88 in 7.0 mi NNW 9.2 mph - N/A   Overcast
10:15 AM 52.0 °F - 51.8 °F 99% 29.89 in 1.5 mi NNW 6.9 mph 17.3 mph N/A Rain Rain
10:35 AM 52.2 °F - 52.2 °F 100% 29.90 in 1.5 mi NW 10.4 mph 17.3 mph N/A   Light Drizzle
10:55 AM 52.2 °F - 52.0 °F 99% 29.90 in 5.0 mi NW 8.1 mph - 0.01 in   Overcast
11:15 AM 54.1 °F - 52.9 °F 95% 29.90 in 10.0 mi NW 8.1 mph - N/A   Overcast
11:35 AM 54.9 °F - 53.2 °F 94% 29.91 in 5.0 mi NW 9.2 mph 17.3 mph N/A   Overcast
11:55 AM 56.3 °F - 54.0 °F 92% 29.91 in 10.0 mi North 5.8 mph - N/A   Overcast
12:15 PM 58.3 °F - 54.9 °F 88% 29.91 in 10.0 mi NNW 4.6 mph - N/A   Overcast
12:35 PM 59.9 °F - 54.9 °F 83% 29.91 in 10.0 mi NW 12.7 mph 18.4 mph N/A   Mostly Cloudy
12:55 PM 60.1 °F - 54.7 °F 82% 29.91 in 10.0 mi WNW 12.7 mph 20.7 mph N/A   Scattered Clouds
1:15 PM 59.2 °F - 53.6 °F 82% 29.91 in 10.0 mi NW 11.5 mph 19.6 mph N/A   Mostly Cloudy
1:35 PM 59.7 °F - 53.6 °F 80% 29.91 in 10.0 mi WNW 9.2 mph 17.3 mph N/A   Mostly Cloudy
1:55 PM 60.3 °F - 53.6 °F 79% 29.91 in 10.0 mi WNW 8.1 mph 16.1 mph N/A   Mostly Cloudy
2:15 PM 62.2 °F - 54.1 °F 75% 29.91 in 10.0 mi WNW 9.2 mph - N/A   Scattered Clouds
2:35 PM 62.6 °F - 54.1 °F 74% 29.90 in 10.0 mi WNW 11.5 mph 16.1 mph N/A   Clear
2:55 PM 62.2 °F - 54.1 °F 75% 29.91 in 10.0 mi NW 9.2 mph 23.0 mph N/A   Clear
3:15 PM 62.2 °F - 54.1 °F 75% 29.91 in 10.0 mi NW 11.5 mph 19.6 mph N/A   Clear
3:35 PM 61.7 °F - 53.8 °F 75% 29.92 in 10.0 mi WNW 5.8 mph 18.4 mph N/A   Clear
3:55 PM 62.2 °F - 53.8 °F 74% 29.93 in 10.0 mi WNW 8.1 mph - N/A   Clear
4:15 PM 62.2 °F - 54.1 °F 75% 29.93 in 10.0 mi WNW 4.6 mph - N/A   Clear
4:35 PM 61.5 °F - 54.0 °F 76% 29.95 in 10.0 mi WNW 8.1 mph - N/A   Scattered Clouds
4:55 PM 60.8 °F - 53.6 °F 77% 29.95 in 10.0 mi West 4.6 mph - N/A   Clear
5:15 PM 60.8 °F - 53.6 °F 77% 29.95 in 10.0 mi West 3.5 mph - N/A   Clear
5:35 PM 59.7 °F - 53.6 °F 80% 29.96 in 10.0 mi West 5.8 mph - N/A   Scattered Clouds
5:55 PM 57.6 °F - 53.2 °F 85% 29.97 in 10.0 mi WSW 4.6 mph - N/A   Scattered Clouds
6:15 PM 56.7 °F - 53.1 °F 88% 29.97 in 10.0 mi West 8.1 mph - N/A   Mostly Cloudy
6:35 PM 56.3 °F - 53.1 °F 89% 29.98 in 10.0 mi WSW 3.5 mph - N/A   Mostly Cloudy
6:55 PM 55.4 °F - 53.1 °F 92% 29.98 in 10.0 mi WSW 5.8 mph - N/A   Scattered Clouds
7:15 PM 55.4 °F - 53.1 °F 92% 29.99 in 10.0 mi West 6.9 mph - N/A   Clear
7:35 PM 54.9 °F - 52.9 °F 93% 29.99 in 10.0 mi West 4.6 mph - N/A   Clear
7:55 PM 54.7 °F - 52.9 °F 94% 30.00 in 10.0 mi West 9.2 mph - N/A   Clear
8:15 PM 54.5 °F - 52.7 °F 94% 30.01 in 10.0 mi West 5.8 mph - N/A   Clear
8:35 PM 54.5 °F - 52.7 °F 94% 30.01 in 10.0 mi WNW 3.5 mph - N/A   Clear
8:55 PM 54.3 °F - 52.3 °F 93% 30.02 in 10.0 mi Calm Calm - N/A   Clear
9:15 PM 53.6 °F - 52.2 °F 95% 30.02 in 10.0 mi Calm Calm - N/A   Clear
9:35 PM 52.7 °F - 52.3 °F 99% 30.03 in 10.0 mi WSW 3.5 mph - N/A   Scattered Clouds
9:55 PM 52.9 °F - 52.0 °F 97% 30.03 in 10.0 mi Calm Calm - N/A   Clear
10:15 PM 52.2 °F - 51.6 °F 98% 30.04 in 10.0 mi West 5.8 mph - N/A   Clear
10:35 PM 52.3 °F - 51.6 °F 97% 30.05 in 10.0 mi NNW 4.6 mph - N/A   Clear
10:55 PM 51.8 °F - 51.4 °F 99% 30.05 in 10.0 mi Calm Calm - N/A   Clear
11:15 PM 52.0 °F - 51.8 °F 99% 30.06 in 10.0 mi Calm Calm - N/A   Clear
11:55 PM 50.9 °F - 50.9 °F 100% 30.05 in 0.8 mi Calm Calm - N/A   Overcast